Location: Larkspur
(54.4391°N, 113.7691°W)
Time: 23:17:29
(UTC+00:00)

CZ-4C DEB - Pass Details

Date: 26 May 2024
Orbit: 605 x 614 km, 97.8° (Epoch: 21 June)

Event Time Altitude Azimuth Distance (km) Brightness Sun altitude
Exits shadow 05:35:49 12° 174° (S) 1,829 ? -10.3°
Maximum altitude 05:39:44 68° 257° (WSW) 668 ? -10.6°
Drops below altitude 10° 05:44:04 10° 341° (NNW) 1,990 ? -10.9°
Sets 05:46:16 0° 344° (NNW) 2,899 ? -11.0°
